Time,TemperatureF,DewpointF,PressureIn,WindDirection,WindDirectionDegrees,WindSpeedMPH,WindSpeedGustMPH,Humidity,HourlyPrecipIn,Conditions,Clouds,dailyrainin,SoftwareType,DateUTC
2013-01-07 12:33:00,79.0,70.0,30.08,ENE,70,6.0,11.0,75,0.00,,,0.00,,2013-01-07 17:33:00,
2013-01-07 12:43:00,79.0,70.0,30.08,ENE,70,6.0,11.0,75,0.00,,,0.00,,2013-01-07 17:43:00,
2013-01-07 12:53:00,79.0,71.0,30.07,ENE,64,6.0,11.0,76,0.00,,,0.00,,2013-01-07 17:53:00,
2013-01-07 13:03:00,79.0,70.0,30.06,ENE,71,7.0,11.0,75,0.00,,,0.00,,2013-01-07 18:03:00,
2013-01-07 13:13:00,79.0,70.0,30.06,ENE,71,7.0,11.0,75,0.00,,,0.00,,2013-01-07 18:13:00,
2013-01-07 13:23:00,79.0,70.0,30.06,NE,46,6.0,11.0,75,0.00,,,0.00,,2013-01-07 18:23:00,
2013-01-07 13:33:00,79.0,71.0,30.06,ENE,76,5.0,10.0,76,0.00,,,0.00,,2013-01-07 18:33:00,
2013-01-07 13:43:00,79.0,71.0,30.06,ENE,76,5.0,10.0,76,0.00,,,0.00,,2013-01-07 18:43:00,
2013-01-07 13:53:00,79.0,70.0,30.05,NE,41,6.0,9.0,75,0.00,,,0.00,,2013-01-07 18:53:00,
2013-01-07 14:03:00,79.0,70.0,30.05,NE,50,7.0,10.0,74,0.00,,,0.00,,2013-01-07 19:03:00,
2013-01-07 14:12:00,79.0,70.0,30.05,NE,50,7.0,10.0,74,0.00,,,0.00,,2013-01-07 19:12:00,
2013-01-07 14:23:00,79.0,70.0,30.04,ENE,64,6.0,10.0,75,0.00,,,0.00,,2013-01-07 19:23:00,
2013-01-07 14:33:00,79.0,70.0,30.04,NE,45,6.0,11.0,75,0.00,,,0.00,,2013-01-07 19:33:00,
2013-01-07 14:43:00,79.0,70.0,30.04,NE,45,6.0,11.0,75,0.00,,,0.00,,2013-01-07 19:43:00,
2013-01-07 14:53:00,79.0,71.0,30.05,ENE,76,6.0,12.0,76,0.00,,,0.00,,2013-01-07 19:53:00,
2013-01-07 15:03:00,79.0,71.0,30.05,East,83,4.0,11.0,77,0.00,,,0.00,,2013-01-07 20:03:00,
2013-01-07 15:12:00,79.0,71.0,30.05,East,83,4.0,11.0,77,0.00,,,0.00,,2013-01-07 20:12:00,
2013-01-07 15:23:00,79.0,70.0,30.04,NE,38,7.0,11.0,75,0.00,,,0.00,,2013-01-07 20:23:00,
2013-01-07 15:33:00,79.0,70.0,30.04,NE,43,7.0,11.0,75,0.00,,,0.00,,2013-01-07 20:33:00,
2013-01-07 15:42:00,79.0,70.0,30.04,NE,43,7.0,11.0,75,0.00,,,0.00,,2013-01-07 20:42:00,
2013-01-07 15:53:00,79.0,72.0,30.04,East,80,5.0,10.0,78,0.00,,,0.00,,2013-01-07 20:53:00,
2013-01-07 16:03:00,79.0,72.0,30.04,ENE,69,7.0,12.0,78,0.00,,,0.00,,2013-01-07 21:03:00,
2013-01-07 16:12:00,79.0,72.0,30.04,ENE,69,7.0,12.0,78,0.00,,,0.00,,2013-01-07 21:12:00,
2013-01-07 16:23:00,78.0,70.0,30.05,ENE,65,6.0,14.0,77,0.00,,,0.00,,2013-01-07 21:23:00,
2013-01-07 16:33:00,78.0,71.0,30.05,ENE,64,6.0,11.0,78,0.00,,,0.00,,2013-01-07 21:33:00,
2013-01-07 16:43:00,78.0,71.0,30.05,ENE,64,6.0,11.0,78,0.00,,,0.00,,2013-01-07 21:43:00,
2013-01-07 16:53:00,77.0,70.0,30.05,NE,54,7.0,11.0,80,0.00,,,0.00,,2013-01-07 21:53:00,
2013-01-07 17:03:00,77.0,71.0,30.05,ENE,62,5.0,10.0,81,0.00,,,0.00,,2013-01-07 22:03:00,
2013-01-07 17:12:00,77.0,71.0,30.05,ENE,62,5.0,10.0,81,0.00,,,0.00,,2013-01-07 22:12:00,
2013-01-07 17:23:00,77.0,71.0,30.05,ENE,59,8.0,13.0,82,0.00,,,0.00,,2013-01-07 22:23:00,
2013-01-07 17:33:00,77.0,71.0,30.06,ENE,60,8.0,11.0,83,0.00,,,0.00,,2013-01-07 22:33:00,
2013-01-07 17:43:00,77.0,71.0,30.06,ENE,60,8.0,11.0,83,0.00,,,0.00,,2013-01-07 22:43:00,
2013-01-07 17:53:00,76.0,71.0,30.06,NNE,29,4.0,12.0,84,0.00,,,0.00,,2013-01-07 22:53:00,
2013-01-07 18:02:00,76.0,70.0,30.07,ENE,62,4.0,10.0,83,0.00,,,0.00,,2013-01-07 23:02:00,
2013-01-07 18:12:00,76.0,70.0,30.07,ENE,62,4.0,10.0,83,0.00,,,0.00,,2013-01-07 23:12:00,
2013-01-07 18:23:00,76.0,70.0,30.07,NE,42,5.0,10.0,83,0.00,,,0.00,,2013-01-07 23:23:00,
2013-01-07 18:33:00,76.0,70.0,30.07,ENE,66,3.0,9.0,83,0.00,,,0.00,,2013-01-07 23:33:00,
2013-01-07 18:43:00,76.0,70.0,30.07,ENE,66,3.0,9.0,83,0.00,,,0.00,,2013-01-07 23:43:00,
2013-01-07 18:53:00,75.0,70.0,30.08,ENE,74,3.0,8.0,84,0.00,,,0.00,,2013-01-07 23:53:00,
2013-01-07 19:03:00,75.0,70.0,30.08,NE,47,5.0,9.0,84,0.00,,,0.00,,2013-01-08 00:03:00,
2013-01-07 19:12:00,75.0,70.0,30.08,NE,47,5.0,9.0,84,0.00,,,0.00,,2013-01-08 00:12:00,
2013-01-07 19:22:00,75.0,70.0,30.09,NE,52,4.0,10.0,84,0.00,,,0.00,,2013-01-08 00:22:00,
2013-01-07 19:33:00,75.0,70.0,30.09,NE,37,5.0,9.0,85,0.00,,,0.00,,2013-01-08 00:33:00,
2013-01-07 19:42:00,75.0,70.0,30.09,NE,37,5.0,9.0,85,0.00,,,0.00,,2013-01-08 00:42:00,
2013-01-07 19:53:00,75.0,71.0,30.09,NNE,23,5.0,13.0,86,0.00,,,0.00,,2013-01-08 00:53:00,
2013-01-07 20:03:00,75.0,71.0,30.09,North,9,5.0,11.0,86,0.00,,,0.00,,2013-01-08 01:03:00,
2013-01-07 20:12:00,75.0,71.0,30.09,North,9,5.0,11.0,86,0.00,,,0.00,,2013-01-08 01:12:00,
2013-01-07 20:22:00,75.0,71.0,30.09,North,3,5.0,11.0,86,0.00,,,0.00,,2013-01-08 01:22:00,
2013-01-07 20:33:00,75.0,71.0,30.10,North,353,5.0,10.0,86,0.00,,,0.00,,2013-01-08 01:33:00,
2013-01-07 20:42:00,75.0,71.0,30.10,North,353,5.0,10.0,86,0.00,,,0.00,,2013-01-08 01:42:00,
2013-01-07 20:52:00,75.0,71.0,30.10,NNE,27,5.0,12.0,87,0.00,,,0.00,,2013-01-08 01:52:00,
2013-01-07 21:02:00,75.0,71.0,30.09,North,358,7.0,11.0,87,0.00,,,0.00,,2013-01-08 02:02:00,
2013-01-07 21:12:00,75.0,71.0,30.09,North,358,7.0,11.0,87,0.00,,,0.00,,2013-01-08 02:12:00,
2013-01-07 21:22:00,75.0,71.0,30.10,North,9,5.0,12.0,87,0.00,,,0.00,,2013-01-08 02:22:00,
2013-01-07 21:33:00,75.0,71.0,30.10,North,355,7.0,12.0,87,0.00,,,0.00,,2013-01-08 02:33:00,
2013-01-07 21:42:00,75.0,71.0,30.10,North,355,7.0,12.0,87,0.00,,,0.00,,2013-01-08 02:42:00,
2013-01-07 21:53:00,75.0,71.0,30.10,NNE,28,6.0,14.0,87,0.00,,,0.00,,2013-01-08 02:53:00,
2013-01-07 22:03:00,75.0,71.0,30.10,NE,54,5.0,12.0,87,0.00,,,0.00,,2013-01-08 03:03:00,
2013-01-07 22:12:00,75.0,71.0,30.10,NE,54,5.0,12.0,87,0.00,,,0.00,,2013-01-08 03:12:00,
2013-01-07 22:22:00,75.0,71.0,30.10,ENE,68,5.0,11.0,87,0.00,,,0.00,,2013-01-08 03:22:00,
2013-01-07 22:32:00,75.0,71.0,30.10,North,350,7.0,12.0,87,0.00,,,0.00,,2013-01-08 03:32:00,
2013-01-07 22:43:00,75.0,71.0,30.10,North,350,7.0,12.0,87,0.00,,,0.00,,2013-01-08 03:43:00,
2013-01-07 22:53:00,74.0,70.0,30.10,NNE,12,4.0,13.0,86,0.00,,,0.00,,2013-01-08 03:53:00,
2013-01-07 23:02:00,74.0,70.0,30.10,NE,54,3.0,9.0,86,0.00,,,0.00,,2013-01-08 04:02:00,
2013-01-07 23:12:00,74.0,70.0,30.10,NE,54,3.0,9.0,86,0.00,,,0.00,,2013-01-08 04:12:00,
2013-01-07 23:22:00,74.0,70.0,30.09,North,5,4.0,12.0,87,0.00,,,0.00,,2013-01-08 04:22:00,
2013-01-07 23:32:00,74.0,70.0,30.09,NNE,28,4.0,11.0,87,0.00,,,0.00,,2013-01-08 04:32:00,
2013-01-07 23:42:00,74.0,70.0,30.09,NNE,28,4.0,11.0,87,0.00,,,0.00,,2013-01-08 04:42:00,
2013-01-07 23:52:00,74.0,70.0,30.08,ENE,64,7.0,11.0,87,0.00,,,0.00,,2013-01-08 04:52:00,